EW9842 Weather Reports


time (UTC)temp
F
wind
direction
speed
knots
gust
knots
rain 1hr
in
rain 24hr
in
rain mn
in
humidity
%
barometer
mb
20260502190035 64 250 0.0 2.6 0.00 0.00 0.00 64 1018.7
20260502184537 64 234 0.9 4.3 0.00 0.00 0.00 62 1019.1
20260502183033 65 29 0.9 3.5 0.00 0.00 0.00 61 1019.1
20260502181544 65 40 0.9 4.3 0.00 0.00 0.00 61 1019.2
20260502181537 64 259 0.9 3.5 0.00 0.00 0.00 63 1019.0
20260502163032 58 320 0.9 4.3 0.00 0.00 0.00 77 1018.6
20260502161654 57 318 0.0 3.5 0.00 0.00 0.00 78 1018.8
20260502151536 56 135 0.0 0.0 0.00 0.00 0.00 79 1018.3
20260502123033 52 157 0.0 2.6 0.00 0.00 0.00 83 1017.4
20260502121534 52 157 1.7 3.5 0.00 0.00 0.00 83 1017.4
20260502114635 52 147 2.6 5.2 0.00 0.00 0.00 83 1017.7
20260502111531 52 129 2.6 4.3 0.00 0.00 0.00 85 1017.7
20260502110041 52 118 1.7 4.3 0.00 0.00 0.00 84 1017.8
20260502101530 53 114 1.7 5.2 0.00 0.00 0.00 83 1018.2
20260502091532 52 109 0.0 2.6 0.00 0.00 0.00 83 1018.4
20260502070141 54 152 2.6 3.5 0.00 0.00 0.00 82 1018.7
20260502064537 54 157 2.6 4.3 0.00 0.00 0.00 82 1018.8
20260502063030 54 145 1.7 4.3 0.00 0.00 0.00 82 1018.8
20260502061536 54 111 1.7 4.3 0.00 0.00 0.00 82 1018.7
20260502051534 56 126 1.7 5.2 0.00 0.00 0.00 81 1018.7
20260502041530 59 66 0.9 4.3 0.00 0.00 0.00 73 1017.9
20260502040040 60 89 1.7 6.1 0.00 0.00 0.00 71 1017.8
20260502034536 62 261 2.6 5.2 0.00 0.00 0.00 69 1017.5
20260502033031 64 16 1.7 4.3 0.00 0.00 0.00 60 1017.5
20260502031537 65 48 0.0 3.5 0.00 0.00 0.00 58 1017.8
20260502030149 66 86 1.7 5.2 0.00 0.00 0.00 57 1017.5
20260502024607 66 336 0.9 4.3 0.00 0.00 0.00 55 1017.2
20260502023029 69 144 0.0 3.5 0.00 0.00 0.00 51 1016.7
20260502021605 71 136 0.0 1.7 0.00 0.00 0.00 46 1016.6
20260502020031 71 188 0.0 0.9 0.00 0.00 0.00 44 1016.7
20260502014530 72 202 0.0 1.7 0.00 0.00 0.00 42 1016.7
20260502011530 73 217 0.9 2.6 0.00 0.00 0.00 38 1016.7
20260502010030 74 227 0.9 3.5 0.00 0.00 0.00 36 1016.6
20260502003035 75 317 2.6 6.1 0.00 0.00 0.00 34 1016.8
20260502001534 76 301 2.6 6.1 0.00 0.00 0.00 34 1016.8
20260502000035 74 293 2.6 6.1 0.00 0.00 0.00 36 1017.0
20260501234642 73 344 2.6 6.1 0.00 0.00 0.00 37 1017.1
20260501233144 73 304 0.9 4.3 0.00 0.00 0.00 38 1017.3
20260501231531 74 296 2.6 7.0 0.00 0.00 0.00 37 1017.5
20260501230029 74 302 3.5 8.7 0.00 0.00 0.00 37 1017.6
20260501224532 75 312 4.3 8.7 0.00 0.00 0.00 37 1017.8
20260501223030 74 313 2.6 7.0 0.00 0.00 0.00 37 1017.9
20260501221534 74 334 3.5 8.7 0.00 0.00 0.00 38 1018.2
20260501220030 73 316 3.5 7.8 0.00 0.00 0.00 39 1018.3
20260501214532 73 301 3.5 9.6 0.00 0.00 0.00 39 1018.5
20260501211642 73 340 3.5 7.0 0.00 0.00 0.00 40 1018.7
20260501201607 69 295 1.7 5.2 0.00 0.00 0.00 42 1019.2
20260501200032 68 312 2.6 6.1 0.00 0.00 0.00 44 1019.5
20260501193033 66 297 2.6 6.1 0.00 0.00 0.00 43 1019.6